User: anonymous   Login
Location: Berg
(47.2344°N, 9.5296°E)
Time: 06:03:35
(UTC+00:00)
Language:

QB50P2 - Orbit

View from above orbital plane
View from above orbital plane
View from above satellite
View from above satellite

Ground track
Ground track

The orbit data is extracted from the following two-line orbital elements,

1 40032U 14033Y   21338.80032902  .00000797  00000-0  90293-4 0  9991
2 40032  97.9257 266.0783 0011356 342.9309  17.1524 14.89168877404645
Epoch (UTC): 04 December 2021 19:12:28
Eccentricity: 0.0011356
inclination: 97.9257°
perigee height: 592 km
apogee height: 608 km
right ascension of ascending node: 266.0783°
argument of perigee: 342.9309°
revolutions per day: 14.89168877
mean anomaly at epoch: 17.1524°
orbit number at epoch: 40464

The dashed part of the orbit path shows where the satellite is in the earth's shadow,  

DLR